Beckley, WV

10:39 AM EST on December 09, 2019 (GMT -0500)
Raleigh County Memorial

Weather History for KBKW - June, 2019

Change the Weather History Date:

Saturday, June 1, 2019

  Actual Average Record
Temperature  
Mean Temperature 67 °F 64 °F  
Max Temperature 76 °F 74 °F 88 °F (1942)
Min Temperature 57 °F 54 °F 32 °F (1955)
Degree Days  
Heating Degree Days 0 3  
Month to date heating degree days 0 3  
Since 1 June heating degree days 0 3  
Since 1 July heating degree days 4751 5304  
Cooling Degree Days 2 2  
Month to date cooling degree days 2 2  
Year to date cooling degree days 122 43  
Since 1 June cooling degree days 2 2  
Growing Degree Days 16 (Base 50)    
Moisture  
Dew Point 55 °F    
Average Humidity 67    
Maximum Humidity 93    
Minimum Humidity 41    
Precipitation  
Precipitation 0.00 in 0.14 in 1.62 in (1915)
Month to date precipitation 0.00 0.14  
Year to date precipitation 20.34 17.30  
Snow  
Snow 0.00 in 0.00 in 0.00 in (2017)
Month to date snowfall 0.0 0.0  
Since 1 September snowfall 40.3 61.9  
Snow Depth 0.00 in    
Sea Level Pressure  
Sea Level Pressure 29.91 in    
Wind  
Wind Speed 5 mph (WNW)    
Max Wind Speed 12 mph    
Max Gust Speed 15 mph    
Visibility 9 miles    
Events Rain    
T = Trace of Precipitation, MM = Missing Value Source: NWS Daily Summary

Daily Weather History Graph

Daily Weather History Graph

Search for Another Location

Airport or City:

Astronomy

Jun. 01, 2019 Rise Set
Actual Time 6:04 AM EDT 8:40 PM EDT
Civil Twilight 5:33 AM EDT 9:11 PM EDT
Nautical Twilight 4:55 AM EDT 9:49 PM EDT
Astronomical Twilight 4:12 AM EDT 10:32 PM EDT
Moon 5:04 AM EDT (6/1) 6:55 PM EDT (6/1)
Length of Visible Light 15h 37m
Length of Day
14h 36m
Waning Crescent, 4% of the Moon is Illuminated
Jun 1
Waning Crescent
Jun 3
New
Jun 10
First Quarter
Jun 17
Full
Jun 25
Last Quarter

Hourly Weather History & Observations

Time (EDT) Temp. Dew Point Humidity Pressure Visibility Wind Dir Wind Speed Gust Speed Precip Events Conditions
12:04 AM 59.0 °F 55.0 °F 87% 29.97 in 10.0 mi WNW 4.6 mph - 0.00 in Rain Light Rain
12:51 AM 59.0 °F 55.9 °F 90% 29.90 in 10.0 mi Calm Calm - 0.00 in   Overcast
1:51 AM 57.9 °F 55.9 °F 93% 29.88 in 8.0 mi West 3.5 mph - N/A   Overcast
2:27 AM 59.0 °F 55.9 °F 90% 29.96 in 10.0 mi West 4.6 mph - N/A   Overcast
2:51 AM 57.9 °F 55.9 °F 93% 29.88 in 8.0 mi WNW 3.5 mph - N/A   Overcast
2:58 AM 57.9 °F 55.9 °F 93% 29.96 in 8.0 mi WNW 4.6 mph - N/A   Overcast
3:06 AM 57.9 °F 55.9 °F 93% 29.97 in 9.0 mi West 6.9 mph - N/A   Overcast
3:51 AM 57.0 °F 55.0 °F 93% 29.90 in 10.0 mi WNW 4.6 mph - N/A   Mostly Cloudy
4:51 AM 57.0 °F 55.0 °F 93% 29.91 in 10.0 mi WNW 5.8 mph - N/A   Overcast
5:51 AM 57.0 °F 54.0 °F 89% 29.92 in 10.0 mi North 4.6 mph - N/A   Overcast
6:51 AM 57.0 °F 54.0 °F 89% 29.93 in 6.0 mi Calm Calm - N/A   Overcast
7:51 AM 57.9 °F 55.0 °F 90% 29.94 in 8.0 mi NW 4.6 mph - N/A   Overcast
8:51 AM 60.1 °F 54.0 °F 80% 29.95 in 10.0 mi Calm Calm - N/A   Overcast
9:30 AM 62.1 °F 55.0 °F 78% 30.00 in 10.0 mi Variable 3.5 mph - N/A   Scattered Clouds
9:51 AM 63.0 °F 55.9 °F 78% 29.94 in 10.0 mi Variable 3.5 mph - N/A   Mostly Cloudy
10:21 AM 64.0 °F 55.9 °F 75% 30.00 in 10.0 mi Calm Calm - N/A   Scattered Clouds
10:51 AM 66.9 °F 57.0 °F 70% 29.93 in 10.0 mi Calm Calm - N/A   Clear
11:51 AM 70.0 °F 55.9 °F 61% 29.92 in 10.0 mi North - - N/A   Clear
12:51 PM 70.0 °F 53.1 °F 55% 29.91 in 10.0 mi NW 4.6 mph - N/A   Clear
1:51 PM 73.9 °F 53.1 °F 48% 29.89 in 10.0 mi North 8.1 mph - N/A   Clear
2:51 PM 75.0 °F 50.0 °F 41% 29.86 in 10.0 mi NNW 6.9 mph - N/A   Clear
3:51 PM 75.0 °F 53.1 °F 46% 29.86 in 10.0 mi NW 6.9 mph - N/A   Clear
4:51 PM 75.0 °F 54.0 °F 48% 29.85 in 10.0 mi North 6.9 mph - N/A   Partly Cloudy
5:51 PM 75.0 °F 55.0 °F 50% 29.84 in 10.0 mi WNW 11.5 mph - N/A   Scattered Clouds
6:51 PM 73.0 °F 55.9 °F 55% 29.85 in 10.0 mi West 9.2 mph - N/A   Scattered Clouds
7:51 PM 71.1 °F 55.9 °F 59% 29.86 in 10.0 mi WNW 3.5 mph - N/A   Mostly Cloudy
8:51 PM 68.0 °F 55.0 °F 63% 29.86 in 10.0 mi West 3.5 mph - N/A   Clear
9:51 PM 63.0 °F 55.9 °F 78% 29.88 in 10.0 mi Calm Calm - N/A   Clear
10:51 PM 60.1 °F 55.0 °F 83% 29.88 in 10.0 mi South 3.5 mph - N/A   Clear
11:51 PM 60.1 °F 55.9 °F 86% 29.87 in 10.0 mi SSE 3.5 mph - N/A   Clear